(321747) = 2010 MW106

Discovered at WISE on 2010-06-30 by WISE.

Orbit

Orbit type: Main Belt

Note: WebGL enabled browser required.

epoch2024-03-31.0
epoch JD2460400.5
perihelion date2022-01-31.50435
perihelion JD2459611.00435
argument of perihelion (°)242.43038
ascending node (°)123.58703
inclination (°)6.68434
eccentricity0.1988515
perihelion distance (AU)2.5572249
Tisserand w.r.t. Jupiter3.2
ΔV w.r.t. Earth (km/sec)10.2
semimajor axis (AU)3.1919488
mean anomaly (°)136.44880
mean daily motion (°/day)0.17283030
aphelion distance (AU)3.827
period (years)5.7
P-vector [x]0.98947045
P-vector [y]0.13416542
P-vector [z]-0.05429436
Q-vector [x]-0.10745153
Q-vector [y]0.93225931
Q-vector [z]0.34546598
absolute magnitude15.93
phase slope0.15
uncertainty0
referenceMPEC 2024-E179
observations used327
oppositions15
arc length (days)7150
first opposition used2004
last opposition used2024
residual rms (arc-secs)0.74
perturbers coarse indicatorM-v
perturbers precise indicator003Ek
first observation date used2004-08-07.0
last observation date used2024-03-05.0
computer nameMPCLINUX
JD of orbit computation2456819.385961
perihelion JD uncertainty (days)1.8440E-04
argument of perihelion uncertainty (°)6.1093E-05
ascending node uncertainty (°)5.6018E-05
inclination uncertainty (°)8.4553E-06
eccentricity uncertainty 7.4577E-08
perihelion distance uncertainty (AU)2.5863E-07
Minimum Orbit Intersection Distances (in AU)
for orbit epoch: 2460400.5, reference: E2024-EE0
Mercury2.1971
Venus1.83211
Earth1.56393
Mars1.16691
Jupiter1.65812
Saturn5.61603
Uranus14.6546
Neptune26.7483

Observations

334 total observations over interval: 2004 08 07.31028 – 2024 03 05.237590
These data are available for download (format description).

Date (UT) J2000 RA J2000 Dec Magn Location Ref
2004 08 07.31028 22 30 53.99 -13 51 47.8 19.4   644 – Palomar Mountain/NEAT MPS 362759
2004 08 07.33362 22 30 53.22 -13 51 56.9 19.3   644 – Palomar Mountain/NEAT MPS 362759
2004 08 07.35992 22 30 52.33 -13 52 07.2 19.4   644 – Palomar Mountain/NEAT MPS 362759
2005 12 05.31539 06 14 26.54 +17 27 24.9 20.4 V 691 – Steward Observatory, Kitt Peak-Spacewatch MPS 362759
2005 12 05.33398 06 14 25.62 +17 27 26.2 20.5 V 691 – Steward Observatory, Kitt Peak-Spacewatch MPS 362759
2005 12 05.38965 06 14 22.90 +17 27 30.0 20.5 V 691 – Steward Observatory, Kitt Peak-Spacewatch MPS 362759
2007 02 25.28464 10 38 11.14 +13 53 36.7 21.0 V G96 – Mt. Lemmon Survey MPS 362759
2007 02 25.29022 10 38 10.89 +13 53 38.4 21.0 V G96 – Mt. Lemmon Survey MPS 362759
2007 02 25.29579 10 38 10.64 +13 53 40.1 21.4 V G96 – Mt. Lemmon Survey MPS 362759
2007 02 25.30139 10 38 10.42 +13 53 41.9 20.8 V G96 – Mt. Lemmon Survey MPS 362759
2010 06 30.019808 00 41 50.873 -00 47 00.74   C51 – WISE MPS 904059
2010 06 30.15211 00 41 59.42 -00 46 31.2   C51 – WISE MPS 337606
2010 06 30.152111 00 41 59.42 -00 46 31.2   C51 – WISE MPS 337606
2010 06 30.284416 00 42 08.13 -00 46 02.0   C51 – WISE MPS 337606
2010 06 30.416719 00 42 16.73 -00 45 30.9   C51 – WISE MPS 337606
2010 06 30.482808 00 42 21.00 -00 45 17.3   C51 – WISE MPS 337606
2010 06 30.549023 00 42 25.23 -00 45 03.3   C51 – WISE MPS 337606
2010 06 30.615111 00 42 29.58 -00 44 47.9   C51 – WISE MPS 337606
2010 06 30.681326 00 42 33.84 -00 44 34.9   C51 – WISE MPS 337606
2010 06 30.747414 00 42 38.02 -00 44 20.7   C51 – WISE MPS 337606
2010 06 30.813631 00 42 42.44 -00 44 05.2   C51 – WISE MPS 337606
2010 06 30.879719 00 42 46.58 -00 43 49.6   C51 – WISE MPS 337606
2010 07 01.012022 00 42 55.12 -00 43 21.1   C51 – WISE MPS 337606
2010 07 01.144326 00 43 03.73 -00 42 52.3   C51 – WISE MPS 337606
2010 07 01.276630 00 43 12.30 -00 42 24.3   C51 – WISE MPS 337606
2010 10 11.29374 00 54 59.98 -05 15 25.2 19.0   704 – Lincoln Laboratory ETS, New Mexico MPS 351437
2010 10 11.30751 00 54 59.38 -05 15 29.2 19.4   704 – Lincoln Laboratory ETS, New Mexico MPS 351437
2010 10 11.32130 00 54 58.80 -05 15 33.0 19.3   704 – Lincoln Laboratory ETS, New Mexico MPS 351437
2010 10 11.33509 00 54 58.17 -05 15 36.7 19.4   704 – Lincoln Laboratory ETS, New Mexico MPS 351437
2010 10 11.34886 00 54 57.58 -05 15 40.8 19.6   704 – Lincoln Laboratory ETS, New Mexico MPS 351437
2010 10 14.21969 00 52 57.42 -05 28 50.5 19.0   704 – Lincoln Laboratory ETS, New Mexico MPS 351437
2010 10 14.23342 00 52 56.82 -05 28 54.4 19.5   704 – Lincoln Laboratory ETS, New Mexico MPS 351437
2010 10 14.24715 00 52 56.26 -05 28 58.6 19.3   704 – Lincoln Laboratory ETS, New Mexico MPS 351437
2010 10 14.26091 00 52 55.65 -05 29 01.9 19.6   704 – Lincoln Laboratory ETS, New Mexico MPS 351437
2010 10 14.27466 00 52 55.06 -05 29 04.6 19.5   704 – Lincoln Laboratory ETS, New Mexico MPS 351437
2010 11 04.08797 00 41 15.99 -06 19 03.1 19.8 R H15 – ISON-NM Observatory, Mayhill MPS 353901
2010 11 04.11462 00 41 15.38 -06 19 03.3 19.6 R H15 – ISON-NM Observatory, Mayhill MPS 353901
2010 11 04.14128 00 41 14.68 -06 19 03.7 19.8 R H15 – ISON-NM Observatory, Mayhill MPS 353901
2010 11 04.16984 00 41 14.02 -06 19 04.5 19.9 R H15 – ISON-NM Observatory, Mayhill MPS 353901
2011 01 29.23981 01 27 15.308 +02 21 23.73 21.3 w F51 – Pan-STARRS 1, Haleakala MPS 381261
2011 01 29.24511 01 27 15.693 +02 21 26.64 21.4 w F51 – Pan-STARRS 1, Haleakala MPS 381261
2011 01 29.25111 01 27 16.121 +02 21 29.99 21.5 w F51 – Pan-STARRS 1, Haleakala MPS 381261
2011 01 29.25640 01 27 16.492 +02 21 33.01 21.4 w F51 – Pan-STARRS 1, Haleakala MPS 381261
2011 12 24.48794 08 00 54.21 +18 23 30.5 20.8 V G96 – Mt. Lemmon Survey MPS 404730
2011 12 24.49412 08 00 53.92 +18 23 31.7 20.5 V G96 – Mt. Lemmon Survey MPS 404730
2011 12 24.50029 08 00 53.71 +18 23 32.7 20.6 V G96 – Mt. Lemmon Survey MPS 404730
2011 12 24.50643 08 00 53.42 +18 23 34.2 21.0 V G96 – Mt. Lemmon Survey MPS 404730
2011 12 27.29723 07 58 56.79 +18 32 53.4 20.6 V 691 – Steward Observatory, Kitt Peak-Spacewatch MPS 404730
2011 12 27.31503 07 58 55.99 +18 32 57.5 20.8 V 691 – Steward Observatory, Kitt Peak-Spacewatch MPS 404730
2011 12 27.33630 07 58 55.04 +18 33 01.7 20.7 V 691 – Steward Observatory, Kitt Peak-Spacewatch MPS 404730
2012 01 02.40715 07 54 17.98 +18 54 33.1 19.6 R H15 – ISON-NM Observatory, Mayhill MPS 406002
2012 01 02.42267 07 54 17.31 +18 54 38.2 19.6 R H15 – ISON-NM Observatory, Mayhill MPS 406002
2012 01 02.43937 07 54 16.49 +18 54 40.2 19.6 R H15 – ISON-NM Observatory, Mayhill MPS 406002
2012 01 02.45344 07 54 15.78 +18 54 44.1 19.5 R H15 – ISON-NM Observatory, Mayhill MPS 406002
2012 01 04.28891 07 52 47.39 +19 01 30.1   691 – Steward Observatory, Kitt Peak-Spacewatch MPS 406002
2012 01 04.30670 07 52 46.50 +19 01 33.5   691 – Steward Observatory, Kitt Peak-Spacewatch MPS 406002
2012 01 04.32447 07 52 45.62 +19 01 38.4   691 – Steward Observatory, Kitt Peak-Spacewatch MPS 406002
2012 01 04.38211 07 52 42.74 +19 01 50.6 20.5 V G96 – Mt. Lemmon Survey MPS 406002
2012 01 04.38899 07 52 42.38 +19 01 51.9 20.1 V G96 – Mt. Lemmon Survey MPS 406002
2012 01 04.39589 07 52 42.06 +19 01 54.0 20.4 V G96 – Mt. Lemmon Survey MPS 406002
2012 01 04.40276 07 52 41.70 +19 01 55.5 20.4 V G96 – Mt. Lemmon Survey MPS 406002
2012 01 18.24354 07 40 59.08 +19 54 17.4 19.7 V G96 – Mt. Lemmon Survey MPS 407774
2012 01 18.24878 07 40 58.90 +19 54 18.0 19.6 V G96 – Mt. Lemmon Survey MPS 407774
2012 01 18.25403 07 40 58.62 +19 54 20.3 20.2 V G96 – Mt. Lemmon Survey MPS 407774
2012 01 18.25932 07 40 58.33 +19 54 21.5 20.1 V G96 – Mt. Lemmon Survey MPS 407774
2012 01 19.28889 07 40 06.032 +19 58 13.49 20.4 g F51 – Pan-STARRS 1, Haleakala MPS 407774
2012 01 19.30154 07 40 05.369 +19 58 16.24 20.7 g F51 – Pan-STARRS 1, Haleakala MPS 407774
2012 01 19.31531 07 40 04.645 +19 58 19.34 20.1 r F51 – Pan-STARRS 1, Haleakala MPS 407774
2012 01 19.32766 07 40 04.003 +19 58 22.17 20.3 r F51 – Pan-STARRS 1, Haleakala MPS 407774
2012 01 25.29676 07 35 07.410 +20 20 13.61 20.7 i F51 – Pan-STARRS 1, Haleakala MPS 408869
2012 01 25.31002 07 35 06.771 +20 20 16.45 20.9 i F51 – Pan-STARRS 1, Haleakala MPS 408869
2012 01 26.20535 07 34 23.77 +20 23 26.6 20.6 V G96 – Mt. Lemmon Survey MPS 408869
2012 01 26.21060 07 34 23.48 +20 23 27.3 20.6 V G96 – Mt. Lemmon Survey MPS 408869
2012 01 26.21589 07 34 23.23 +20 23 28.8 20.7 V G96 – Mt. Lemmon Survey MPS 408869
2012 01 26.22115 07 34 22.98 +20 23 30.0 20.7 V G96 – Mt. Lemmon Survey MPS 408869
2012 02 19.15386 07 19 47.85 +21 34 33.2 21.5 V 691 – Steward Observatory, Kitt Peak-Spacewatch MPS 413056
2012 02 19.17029 07 19 47.48 +21 34 35.6 21.1 V 691 – Steward Observatory, Kitt Peak-Spacewatch MPS 413056
2012 02 19.18670 07 19 47.10 +21 34 37.6 21.5 V 691 – Steward Observatory, Kitt Peak-Spacewatch MPS 413056
2012 02 22.83470 07 18 33.62 +21 42 42.3 20.9   A14 – Les Engarouines Observatory MPS 413056
2012 02 22.84233 07 18 33.44 +21 42 42.5 20.4   A14 – Les Engarouines Observatory MPS 413056
2012 02 22.84980 07 18 33.33 +21 42 43.8 21.0   A14 – Les Engarouines Observatory MPS 413056
2012 02 23.11201 07 18 28.83 +21 43 18.0 21.4 V 691 – Steward Observatory, Kitt Peak-Spacewatch MPS 413056
2012 02 23.13369 07 18 28.43 +21 43 21.0 21.6 V 691 – Steward Observatory, Kitt Peak-Spacewatch MPS 413056
2012 02 23.14447 07 18 28.17 +21 43 22.0 21.1 V 691 – Steward Observatory, Kitt Peak-Spacewatch MPS 413056
2013 03 14.41699 11 37 20.42 +09 47 42.7 20.5 V G96 – Mt. Lemmon Survey MPS 460504
2013 03 14.42303 11 37 20.17 +09 47 43.8 20.8 V G96 – Mt. Lemmon Survey MPS 460504
2013 03 14.42892 11 37 19.88 +09 47 45.8 20.1 V G96 – Mt. Lemmon Survey MPS 460504
2013 03 14.43486 11 37 19.66 +09 47 47.7 19.9 V G96 – Mt. Lemmon Survey MPS 460504
2014 04 24.34666 14 53 38.34 -07 05 30.2 20.9 V G96 – Mt. Lemmon Survey MPS 512362
2014 04 24.35347 14 53 38.02 -07 05 28.9 21.2 V G96 – Mt. Lemmon Survey MPS 512362
2014 04 24.36027 14 53 37.73 -07 05 27.2 21.5 V G96 – Mt. Lemmon Survey MPS 512362
2014 04 24.36705 14 53 37.46 -07 05 25.7 21.0 V G96 – Mt. Lemmon Survey MPS 512362
2014 04 26.32720 14 52 14.49 -06 58 16.2 22.1 V W84 – Cerro Tololo-DECam MPS 789670
